Theta_e
292 291 291 291 292 292 292 293 295 296 297 298 297 297 297 297 297 297 295 295 294 295
291 291 291 291 293 292 293 293 294 294 296 296 297 297 297 296 296 296 296 295 295 294
291 291 291 291 291 291 292 293 293 293 294 296 296 297 297 297 296 295 296 296 295 295
290 291 291 290 291 290 291 292 292 292 292 294 294 295 297 296 297 296 295 296 296 295
291 291 290 290 290 291 290 292 291 291 292 293 295 294 296 296 296 295 295 295 295 294
290 290 290 290 290 291 291 291 291 291 291 293 296 295 296 297 296 296 296 295 295 295
290 290 291 291 291 290 291 290 291 290 291 296 297 300 297 297 297 296 296 296 296 296
290 291 291 291 291 291 291 290 291 290 290 295 295 297 294 294 294 294 293 294 296 297
289 290 290 290 290 290 290 290 290 290 290 292 296 299 298 294 291 292 291 290 292 296
289 289 290 290 290 290 290 290 290 289 290 290 294 297 297 295 292 292 292 292 291 292
288 288 290 290 289 289 290 290 290 290 290 291 292 296 295 294 291 291 291 292 292 292
288 288 289 289 290 289 289 290 289 291 290 290 291 296 294 291 290 290 290 291 293 293
288 288 288 289 291 291 290 289 290 290 291 292 291 295 295 292 290 289 289 290 291 297
288 288 289 290 290 291 290 289 289 290 290 291 291 292 294 294 290 288 289 288 289 291
Wind_Speed
18 11 11 13 12 10 10 11 15 12 14 9 8 6 4 4 3 5 6 9 9 6
16 16 14 17 14 11 13 12 14 15 10 13 9 7 6 3 6 4 6 7 8 7
15 15 15 14 15 15 15 15 16 16 15 9 10 8 5 4 3 3 4 5 8 8
15 16 15 14 14 13 16 16 16 16 15 14 8 9 6 5 5 4 4 3 6 8
16 16 15 15 16 15 16 17 17 18 16 15 7 6 6 5 4 4 4 5 3 4
16 16 16 16 17 17 16 17 17 19 18 17 9 5 6 5 4 3 3 3 4 4
16 16 15 15 16 17 17 16 17 18 20 17 17 6 1 2 4 4 5 5 5 6
15 15 15 16 16 16 17 17 17 18 19 16 17 14 14 12 10 7 6 6 6 6
15 15 15 15 15 15 16 17 17 18 18 17 12 26 23 15 10 9 8 7 9 7
14 15 15 13 13 13 14 16 17 16 17 17 14 26 24 24 11 10 10 8 8 7
14 13 14 15 15 15 12 14 14 17 17 16 14 25 24 21 11 10 12 9 10 8
14 13 12 14 15 14 13 11 13 13 16 16 16 25 24 18 13 14 15 15 10 10
12 12 12 11 12 14 13 13 10 12 13 20 15 23 23 17 10 13 11 12 14 22
12 11 12 12 10 12 12 13 13 12 11 14 16 16 24 22 11 9 9 10 11 11
Wind_Direction
346 344 339 335 340 336 333 330 334 331 337 316 320 322 307 278 260 243 232 226 221 219
347 344 341 340 339 338 332 333 336 336 330 338 316 310 307 264 273 262 245 219 216 216
345 344 343 342 341 337 335 339 340 339 337 320 329 301 298 292 284 263 280 204 217 218
349 348 347 346 342 339 334 341 342 337 334 328 326 319 289 288 280 235 250 275 224 223
350 349 350 350 350 345 340 341 347 336 336 327 321 299 294 275 296 257 254 231 219 261
352 351 353 354 355 352 347 349 352 341 343 329 330 248 257 264 277 281 280 262 255 233
349 351 352 351 355 357 353 355 355 352 345 1 11 37 233 315 318 346 356 331 299 260
346 351 356 353 350 1 2 359 360 1 356 4 35 36 40 31 24 35 360 340 314 293
349 355 1 353 347 357 7 7 6 4 4 2 27 45 48 48 41 31 20 1 341 335
353 356 360 351 347 359 13 12 12 8 6 6 14 36 40 38 22 15 21 21 13 7
354 355 359 2 0 0 10 19 17 11 6 8 360 39 32 33 24 24 21 22 35 30
352 352 347 3 8 6 359 10 22 18 13 7 3 38 34 28 22 23 21 14 6 50
350 351 351 353 4 10 8 6 1 15 22 13 9 18 42 34 24 25 18 20 18 31
354 350 0 353 346 11 11 12 8 13 13 23 12 14 33 42 31 26 26 22 19 21